Regional Weather Roundup
Issued by NWS Glasgow, MT

Home | Current Version | Previous Version | Text Only | Print | Product List | Glossary On
Versions: 1 2 3 4 5 6 7 8 9 10 11 12 13 14 15 16 17 18 19 20 21 22 23 24 25 26 27 28 29 30 31 32 33 34 35 36 37 38 39 40 41 42 43 44 45 46 47 48 49 50
000
ASUS45 KGGW 232115
RWRGGW
HOURLY WEATHER ROUNDUP FOR NORTHEAST MONTANA
NATIONAL WEATHER SERVICE GLASGOW MONTANA
200 PM MST SUN NOV 23 2014

NOTE: "FAIR" INDICATES FEW OR NO CLOUDS BELOW 12,000 FEET WITH NO
SIGNIFICANT WEATHER AND/OR OBSTRUCTIONS TO VISISBILITY.

NORTHEAST MONTANA


CITY           SKY/WX    TMP DP  RH WIND       PRES   REMARKS
GLASGOW        FLURRIES  27  19  72 NW17      29.81F
PLENTYWOOD       N/A     21  15  78 NW21G31     N/A
WOLF POINT     CLOUDY    28  16  60 NW21      29.83S
JORDAN           N/A     37  25  61 NW20G28   29.80F
WINNETT          N/A     45  19  35 W20G28      N/A
SIDNEY         CLOUDY    27  16  63 W21G30    29.79R
GLENDIVE       CLOUDY    27  18  69 W21G33    29.80R
MALTA            N/A     39  27  62 W15G25      N/A

FORT PECK REPORTS


CITY           SKY/WX    TMP DP  RH WIND       PRES   REMARKS
FORT PECK        N/A     26  21  81 NW24G37     N/A
THE PINES        N/A     29  21  72 N7          N/A

SOUTHEAST MONTANA


CITY           SKY/WX    TMP DP  RH WIND       PRES   REMARKS
BILLINGS       MOSUNNY   43  14  31 NW25G37   29.87F
MILES CITY     PTSUNNY   39  23  52 NW26G36   29.80S
BAKER          CLOUDY    27  18  69 NW22G32   29.75R
LIVINGSTON     MOSUNNY   41  15  35 W30G38    29.93F

CENTRAL MONTANA


CITY           SKY/WX    TMP DP  RH WIND       PRES   REMARKS
HAVRE          SUNNY     43  23  45 W9        29.83F
LEWISTOWN      MOSUNNY   41  16  36 W24G33    29.84F
GREAT FALLS    MOSUNNY   41  16  36 W25G36    29.85F
CUT BANK       PTSUNNY   38  20  48 W16       29.81F
HELENA         PTSUNNY   40  20  44 W15G25    29.95F
BUTTE          PTSUNNY   34  17  50 W10       29.98F
BOZEMAN        CLOUDY    39  18  42 W14       29.98F

WESTERN MONTANA


CITY           SKY/WX    TMP DP  RH WIND       PRES   REMARKS
MISSOULA       CLOUDY    38  29  70 S8        30.04F
KALISPELL      NOT AVBL

NORTH DAKOTA


CITY           SKY/WX    TMP DP  RH WIND       PRES   REMARKS
WILLISTON      CLOUDY    20  12  71 NW16      29.76R
DICKINSON      CLOUDY    24  15  68 NW26G41   29.64R
MINOT          FLURRIES  17   8  67 NW23G31   29.63R WCI  -1
BISMARCK       CLOUDY    24  15  68 NW20G30   29.62S

SOUTHERN SASKATCHEWAN


CITY           SKY/WX    TMP DP  RH WIND       PRES   REMARKS
REGINA         PTSUNNY   14  10  85 NW17      29.79R WCI  -3
MOOSE JAW      PTSUNNY   18  12  79 NW14      29.82R
ESTEVAN        FLURRIES  16   9  73 NW28G33   29.71R WCI  -4
SWIFT CURRENT  SUNNY     18  12  79 NW13      29.79R



USA.gov is the U.S. government's official web portal to all federal, state and local government web resources and services.